Content
SEND FEEDBACK

Daily
Averages
Monthly
Summary
United States of America

SOUTH LAKE TAHOE, CALIFORNIA


Home > North America > United States > California
Elevation: 6263 feet     Latitude: 38 53N     Longitude: 119 59W

WEATHER
 
SELECT A DAY
Number of Records: 177,809;   Date Range: 1/1/95 - 11/22/14
 
SHARE

PRINT THIS DATA

[ ← Previous Day ]
WEATHER ALMANAC - SEPTEMBER 18, 2013
[ Next Day → ]
[ °C ]   °F
Weather ElementAverageHighLow
Temperature48.4 °F66.9 °F (4:53 pm)30 °F (4:53 am)
Dewpoint27.1 °F35.1 °F (2:53 pm)21 °F (4:53 am)
Humidity46.9 %70 % (2:53 am)24 % (5:53 pm)
Barometer30.00 in30.10 in (10:29 am)29.95 in (1:53 am)
Wind Speed2.6 mph9.2 mph (12:53 pm)
Weather ElementAverage
Visibility10 mi
Wind DirectionNNE (26.7 °)

Weather ElementTotal
Precipitation0.01 in
Heating Degree Days16.6 (Base 65)
Averaged from 24 records on September 18, 2013
WEATHER CONDITIONS BREAKOUT
WIND DIRECTION BREAKOUT
WEATHER BY HOUR - SEPTEMBER 18, 2013
[ °C ]   °F
Local TimeTemperatureDewpointHumidityBarometerVisibilityWind DirectionWind SpeedGust SpeedPrecipitationEventsConditions
1:53 AM35.1 °F24.1 °F64 %29.95 in10.0 miCalmClear
2:53 AM33.1 °F24.1 °F70 %29.96 in10.0 miCalmClear
3:53 AM30.9 °F21.9 °F69 %29.96 in10.0 miCalmClear
4:53 AM30.0 °F21.0 °F69 %29.96 in10.0 miCalmClear
5:53 AM30.0 °F21.0 °F69 %29.99 in10.0 miCalmClear
6:53 AM30.0 °F21.0 °F69 %30.01 in10.0 miCalmClear
7:53 AM32.0 °F23.0 °F69 %30.04 in10.0 miSouth (180°)3.5 mphClear
8:53 AM44.1 °F27.0 °F51 %30.01 in10.0 miCalmClear
9:53 AM53.1 °F26.1 °F35 %30.01 in10.0 miVariable4.6 mphClear
10:29 AM55.4 °F26.6 °F33 %30.10 inCalmPartly Cloudy
10:53 AM57.0 °F30.0 °F36 %30.01 in10.0 miVariable4.6 mph0.01 inClear
11:53 AM59.0 °F30.0 °F33 %30.01 in10.0 miVariable6.9 mphClear
12:53 PM63.0 °F30.9 °F30 %29.99 in10.0 miNNE (30°)9.2 mphClear
1:53 PM64.0 °F34.0 °F33 %29.98 in10.0 miVariable6.9 mphClear
2:53 PM64.0 °F35.1 °F34 %29.97 in10.0 miVariable3.5 mphClear
3:53 PM66.0 °F34.0 °F30 %29.96 in10.0 miNNE (30°)5.8 mphClear
4:53 PM66.9 °F30.0 °F25 %29.96 in10.0 miCalmClear
5:53 PM63.0 °F25.0 °F24 %29.97 in10.0 miNNE (20°)5.8 mphClear
6:53 PM57.0 °F28.0 °F33 %30.00 in10.0 miCalmClear
7:53 PM53.1 °F28.9 °F40 %30.02 in10.0 miSouth (190°)3.5 mphClear
8:53 PM48.0 °F28.0 °F46 %30.04 in10.0 miCalmClear
9:53 PM45.0 °F28.0 °F52 %30.03 in10.0 miVariable3.5 mphClear
10:53 PM42.1 °F26.1 °F53 %30.03 in10.0 miSouth (190°)3.5 mphClear
11:53 PM39.9 °F26.1 °F58 %30.04 in10.0 miCalmClear
Hourly data recorded from KTVL, located miles away from South Lake Tahoe, California







STORIES FROM OUR PARTNERS